Tracking 30743 objects as of 20-Jun-2025
HD Live streaming from Space Station
objects crossing your sky now

COSMOS 1771

Track COSMOS 1771 now!
10-day predictions
COSMOS 1771 is classified as:


NORAD ID: 16917
Int'l Code: 1986-062A
Perigee: 933.8 km
Apogee: 989.6 km
Inclination: 65.0 °
Period: 104.1 minutes
Semi major axis: 7332 km
RCS: 2.6102 m2 (large)
Launch date: August 20, 1986
Source: Commonwealth of Independent States (former USSR) (CIS)
Launch site: TYURATAM MISSILE AND SPACE COMPLEX (TTMTR)
Your satellite tracking list
Your tracking list is empty




NASA's NSSDC Master Catalog

Two Line Element Set (TLE):
1 16917U 86062A   25170.40960645 -.00000072  00000-0  15129-4 0  9997
2 16917  64.9816 210.2097 0038073  44.5723 315.8388 13.82626544961617
Source of the keplerian elements: AFSPC